DW6610 Weather Reports


time (UTC)temp
C
wind
direction
speed
KPH
gust
KPH
rain 1hr
cm
rain 24hr
cm
rain mn
cm
humidity
%
barometer
mb
20260902163552 37 13 1.6 8.0 0.00 0.00 0.00 57 1019.4
20260902163101 37 100 1.6 8.0 0.00 0.00 0.00 55 1019.5
20260902162551 36 65 0.0 6.4 0.00 0.00 0.00 57 1019.5
20260902162054 36 93 0.0 8.0 0.00 0.00 0.00 61 1019.6
20260902161604 36 98 3.2 8.0 0.00 0.00 0.00 58 1019.6
20260902161052 36 94 0.0 4.8 0.00 0.00 0.00 61 1019.6
20260902160551 36 105 0.0 4.8 0.00 0.00 0.00 60 1019.5
20260902155552 35 134 1.6 6.4 0.00 0.00 0.00 58 1019.6
20260902155118 35 84 1.6 6.4 0.00 0.00 0.00 59 1019.6
20260902154602 35 42 1.6 6.4 0.00 0.00 0.00 59 1019.6
20260902154051 35 56 0.0 6.4 0.00 0.00 0.00 61 1019.6
20260902153551 35 76 1.6 6.4 0.00 0.00 0.00 60 1019.7
20260902153113 35 101 1.6 6.4 0.00 0.00 0.00 60 1019.7
20260902152551 35 80 1.6 6.4 0.00 0.00 0.00 62 1019.7
20260902152051 35 97 1.6 6.4 0.00 0.00 0.00 66 1019.6
20260902151603 35 169 1.6 6.4 0.00 0.00 0.00 64 1019.6
20260902151055 35 141 1.6 6.4 0.00 0.00 0.00 65 1019.7
20260902150551 35 99 1.6 4.8 0.00 0.00 0.00 63 1019.7
20260902150105 35 86 1.6 4.8 0.00 0.00 0.00 67 1019.7
20260902145552 35 89 1.6 4.8 0.00 0.00 0.00 65 1019.7
20260902145051 34 79 0.0 1.6 0.00 0.00 0.00 67 1019.7
20260902144604 34 115 0.0 1.6 0.00 0.00 0.00 66 1019.7
20260902144051 33 112 0.0 3.2 0.00 0.00 0.00 68 1019.7
20260902143551 33 113 0.0 3.2 0.00 0.00 0.00 70 1019.7
20260902143105 33 164 1.6 3.2 0.00 0.00 0.00 68 1019.7
20260902142552 33 0 0.0 3.2 0.00 0.00 0.00 70 1019.7
20260902142053 33 92 0.0 3.2 0.00 0.00 0.00 69 1019.7
20260902141604 32 70 0.0 1.6 0.00 0.00 0.00 70 1019.7
20260902141052 32 115 0.0 4.8 0.00 0.00 0.00 71 1019.7
20260902140552 32 107 0.0 4.8 0.00 0.00 0.00 72 1019.7
20260902140108 31 92 0.0 3.2 0.00 0.00 0.00 72 1019.7
20260902135551 31 73 0.0 3.2 0.00 0.00 0.00 74 1019.8
20260902135051 31 86 0.0 3.2 0.00 0.00 0.00 73 1019.8
20260902134604 31 0 0.0 3.2 0.00 0.00 0.00 74 1019.8
20260902134051 30 0 0.0 3.2 0.00 0.00 0.00 74 1019.7
20260902133552 30 0 0.0 3.2 0.00 0.00 0.00 77 1019.8
20260902133105 29 0 0.0 3.2 0.00 0.00 0.00 79 1019.7
20260902132552 28 0 0.0 3.2 0.00 0.00 0.00 79 1019.7
20260902132051 27 63 1.6 3.2 0.00 0.00 0.00 81 1019.7
20260902131617 27 32 0.0 3.2 0.00 0.00 0.00 83 1019.7
20260902131053 26 70 0.0 3.2 0.00 0.00 0.00 86 1019.6
20260902130552 26 70 0.0 1.6 0.00 0.00 0.00 88 1019.7
20260902130108 25 0 0.0 1.6 0.00 0.00 0.00 89 1019.6
20260902125555 25 0 0.0 1.6 0.00 0.00 0.00 90 1019.7
20260902125052 24 0 0.0 1.6 0.00 0.00 0.00 91 1019.6
20260902124606 23 79 0.0 1.6 0.00 0.00 0.00 92 1019.5
20260902124051 23 0 0.0 1.6 0.00 0.00 0.00 92 1019.5
20260902123551 23 0 0.0 0.0 0.00 0.00 0.00 93 1019.5
20260902123107 23 0 0.0 0.0 0.00 0.00 0.00 93 1019.4
20260902122552 23 0 0.0 0.0 0.00 0.00 0.00 94 1019.4
20260902122051 23 0 0.0 0.0 0.00 0.00 0.00 94 1019.4
20260902121609 22 0 0.0 0.0 0.00 0.00 0.00 95 1019.4
20260902121052 22 0 0.0 0.0 0.00 0.00 0.00 95 1019.3
20260902120554 22 0 0.0 0.0 0.00 0.00 0.00 95 1019.1
20260902120104 22 0 0.0 0.0 0.00 0.00 0.00 96 1019.0
20260902115552 22 0 0.0 1.6 0.00 0.00 0.00 96 1018.9
20260902115052 22 0 0.0 1.6 0.00 0.00 0.00 96 1018.9
20260902114601 22 0 0.0 1.6 0.00 0.00 0.00 96 1019.0
20260902114052 22 0 0.0 0.0 0.00 0.00 0.00 97 1018.9
20260902113554 22 0 0.0 0.0 0.00 0.00 0.00 97 1018.9
20260902113107 22 0 0.0 0.0 0.00 0.00 0.00 96 1018.8
20260902112551 22 0 0.0 0.0 0.00 0.00 0.00 96 1018.8
20260902112051 22 0 0.0 0.0 0.00 0.00 0.00 96 1018.8
20260902111606 22 0 0.0 0.0 0.00 0.00 0.00 97 1018.7
20260902111052 22 0 0.0 0.0 0.00 0.00 0.00 97 1018.7
20260902110552 22 0 0.0 0.0 0.00 0.00 0.00 96 1018.5
20260902110059 22 0 0.0 0.0 0.00 0.00 0.00 96 1018.4
20260902105551 22 0 0.0 0.0 0.00 0.00 0.00 96 1018.4
20260902105051 22 0 0.0 0.0 0.00 0.00 0.00 96 1018.4
20260902104613 22 0 0.0 0.0 0.00 0.00 0.00 96 1018.4
20260902104050 22 0 0.0 0.0 0.00 0.00 0.00 95 1018.5
20260902103551 22 0 0.0 0.0 0.00 0.00 0.00 95 1018.4
20260902103107 22 0 0.0 0.0 0.00 0.00 0.00 95 1018.4
20260902102553 22 0 0.0 0.0 0.00 0.00 0.00 95 1018.3
20260902102056 22 0 0.0 0.0 0.00 0.00 0.00 95 1018.2
20260902101601 22 0 0.0 0.0 0.00 0.00 0.00 95 1018.1
20260902101052 22 0 0.0 0.0 0.00 0.00 0.00 96 1018.0
20260902100552 22 0 0.0 0.0 0.00 0.00 0.00 96 1018.0
20260902100101 22 0 0.0 0.0 0.00 0.00 0.00 96 1018.0
20260902095552 22 0 0.0 0.0 0.00 0.00 0.00 96 1017.9
20260902095051 22 0 0.0 0.0 0.00 0.00 0.00 96 1017.9
20260902094557 22 0 0.0 0.0 0.00 0.00 0.00 96 1017.8
20260902094051 22 0 0.0 0.0 0.00 0.00 0.00 96 1017.8
20260902093551 22 0 0.0 0.0 0.00 0.00 0.00 96 1017.8
20260902093101 22 0 0.0 0.0 0.00 0.00 0.00 96 1017.8
20260902092549 22 0 0.0 0.0 0.00 0.00 0.00 95 1017.9
20260902092053 23 0 0.0 0.0 0.00 0.00 0.00 95 1017.7
20260902091611 23 0 0.0 0.0 0.00 0.00 0.00 95 1017.7
20260902091052 23 0 0.0 0.0 0.00 0.00 0.00 95 1017.7
20260902090554 23 0 0.0 0.0 0.00 0.00 0.00 94 1017.7
20260902090104 23 0 0.0 0.0 0.00 0.00 0.00 94 1017.7
20260902085551 23 0 0.0 0.0 0.00 0.00 0.00 94 1017.6
20260902085051 23 0 0.0 0.0 0.00 0.00 0.00 94 1017.7
20260902084609 23 0 0.0 0.0 0.00 0.00 0.00 94 1017.6
20260902084051 23 0 0.0 0.0 0.00 0.00 0.00 94 1017.7
20260902083551 23 0 0.0 1.6 0.00 0.00 0.00 93 1017.7
20260902083117 23 0 0.0 1.6 0.00 0.00 0.00 93 1017.7
20260902082552 23 0 0.0 1.6 0.00 0.00 0.00 93 1017.7
20260902082052 23 0 0.0 1.6 0.00 0.00 0.00 93 1017.7
20260902081558 23 0 0.0 1.6 0.00 0.00 0.00 93 1017.7
20260902081052 23 0 0.0 1.6 0.00 0.00 0.00 92 1017.6
20260902080554 23 0 0.0 1.6 0.00 0.00 0.00 91 1017.6
20260902075554 24 0 0.0 0.0 0.00 0.00 0.00 90 1017.7
20260902075051 24 0 0.0 0.0 0.00 0.00 0.00 90 1017.8
20260902074623 24 0 0.0 0.0 0.00 0.00 0.00 89 1017.8
20260902074052 24 0 0.0 1.6 0.00 0.00 0.00 89 1017.8
20260902073551 24 0 0.0 1.6 0.00 0.00 0.00 89 1017.9
20260902073103 24 0 0.0 0.0 0.00 0.00 0.00 89 1017.8
20260902072551 24 0 0.0 1.6 0.00 0.00 0.00 88 1017.8
20260902072052 24 0 0.0 1.6 0.00 0.00 0.00 88 1017.8
20260902071604 24 79 0.0 1.6 0.00 0.00 0.00 89 1017.8
20260902071056 24 0 0.0 1.6 0.00 0.00 0.00 89 1017.7
20260902070551 24 79 0.0 1.6 0.00 0.00 0.00 89 1017.8
20260902070105 25 79 0.0 0.0 0.00 0.00 0.00 89 1017.8
20260902065551 25 0 0.0 1.6 0.00 0.00 0.00 88 1017.7
20260902065051 25 0 0.0 3.2 0.00 0.00 0.00 88 1017.9
20260902064601 25 78 0.0 3.2 0.00 0.00 0.00 88 1017.8
20260902064052 25 0 0.0 1.6 0.00 0.00 0.00 88 1017.8
20260902063552 24 94 0.0 1.6 0.00 0.00 0.00 89 1017.9
20260902063102 24 0 0.0 1.6 0.00 0.00 0.00 90 1017.8
20260902062552 24 0 0.0 1.6 0.00 0.00 0.00 91 1017.8
20260902062052 24 0 0.0 1.6 0.00 0.00 0.00 91 1017.8
20260902061600 24 0 0.0 0.0 0.00 0.00 0.00 92 1017.8
20260902061051 25 0 0.0 1.6 0.00 0.00 0.00 92 1017.8
20260902060553 25 0 0.0 1.6 0.00 0.00 0.00 92 1017.9
20260902060108 24 0 0.0 1.6 0.00 0.00 0.00 92 1017.9
20260902055552 24 0 0.0 1.6 0.00 0.00 0.00 92 1017.8
20260902055052 24 0 0.0 0.0 0.00 0.00 0.00 91 1017.8
20260902054610 24 0 0.0 0.0 0.00 0.00 0.00 92 1018.0
20260902054051 25 0 0.0 0.0 0.00 0.00 0.00 92 1017.8
20260902053552 25 0 0.0 0.0 0.00 0.00 0.00 92 1017.8
20260902053117 25 0 0.0 0.0 0.00 0.00 0.00 92 1017.8
20260902052551 25 0 0.0 0.0 0.00 0.00 0.00 92 1017.8
20260902052051 25 0 0.0 0.0 0.00 0.00 0.00 91 1017.7
20260902051619 25 0 0.0 1.6 0.00 0.00 0.00 91 1017.8
20260902051051 25 0 0.0 1.6 0.00 0.00 0.00 91 1017.6
20260902050551 25 0 0.0 0.0 0.00 0.00 0.00 90 1017.6
20260902050111 25 0 0.0 0.0 0.00 0.00 0.00 90 1017.6
20260902045552 25 0 0.0 0.0 0.00 0.00 0.00 90 1017.5
20260902045052 25 0 0.0 0.0 0.00 0.00 0.00 89 1017.6
20260902044600 25 0 0.0 0.0 0.00 0.00 0.00 88 1017.5
20260902044052 25 0 0.0 0.0 0.00 0.00 0.00 87 1017.4
20260902043551 25 0 0.0 0.0 0.00 0.00 0.00 88 1017.4
20260902043121 25 0 0.0 0.0 0.00 0.00 0.00 87 1017.5
20260902042551 26 0 0.0 0.0 0.00 0.00 0.00 87 1017.5
20260902042052 26 0 0.0 0.0 0.00 0.00 0.00 86 1017.5
20260902041604 26 0 0.0 1.6 0.00 0.00 0.00 86 1017.4
20260902041051 26 0 0.0 1.6 0.00 0.00 0.00 85 1017.4
20260902040551 26 0 0.0 0.0 0.00 0.00 0.00 85 1017.4
20260902040110 26 0 0.0 1.6 0.00 0.00 0.00 85 1017.4
20260902035552 26 0 0.0 1.6 0.00 0.00 0.00 85 1017.5
20260902035052 26 0 0.0 1.6 0.00 0.00 0.00 86 1017.5
20260902034606 26 96 0.0 1.6 0.00 0.00 0.00 86 1017.5
20260902034052 26 0 0.0 1.6 0.00 0.00 0.00 87 1017.5
20260902033551 26 0 0.0 1.6 0.00 0.00 0.00 87 1017.5
20260902033100 26 0 0.0 1.6 0.00 0.00 0.00 87 1017.5
20260902032552 26 0 0.0 1.6 0.00 0.00 0.00 87 1017.6
20260902032051 26 0 0.0 1.6 0.00 0.00 0.00 87 1017.5
20260902031559 26 0 0.0 0.0 0.00 0.00 0.00 87 1017.5
20260902031051 27 0 0.0 1.6 0.00 0.00 0.00 86 1017.5
20260902030553 27 0 0.0 1.6 0.00 0.00 0.00 84 1017.5
20260902030110 27 0 0.0 1.6 0.00 0.00 0.00 83 1017.4
20260902025551 27 0 0.0 1.6 0.00 0.00 0.00 82 1017.4
20260902025052 27 0 0.0 1.6 0.00 0.00 0.00 83 1017.4
20260902024556 27 0 0.0 0.0 0.00 0.00 0.00 82 1017.3
20260902024051 27 0 0.0 0.0 0.00 0.00 0.00 82 1017.3
20260902023553 27 0 0.0 0.0 0.00 0.00 0.00 81 1017.1
20260902023111 27 0 0.0 1.6 0.00 0.00 0.00 81 1017.2
20260902022554 27 0 0.0 1.6 0.00 0.00 0.00 80 1017.2
20260902022052 27 0 0.0 1.6 0.00 0.00 0.00 80 1017.1
20260902021604 27 0 0.0 0.0 0.00 0.00 0.00 80 1017.1
20260902021053 28 0 0.0 0.0 0.00 0.00 0.00 81 1017.1
20260902020552 28 0 0.0 0.0 0.00 0.00 0.00 80 1017.0
20260902020100 28 0 0.0 0.0 0.00 0.00 0.00 78 1017.1
20260902015551 28 0 0.0 0.0 0.00 0.00 0.00 78 1017.0
20260902015051 28 0 0.0 0.0 0.00 0.00 0.00 78 1017.0
20260902014601 28 0 0.0 0.0 0.00 0.00 0.00 77 1016.9
20260902014051 28 0 0.0 0.0 0.00 0.00 0.00 75 1016.8
20260902013552 28 0 0.0 0.0 0.00 0.00 0.00 75 1016.8
20260902013102 28 0 0.0 0.0 0.00 0.00 0.00 75 1016.8
20260902012552 28 0 0.0 0.0 0.00 0.00 0.00 75 1016.8
20260902012051 29 0 0.0 0.0 0.00 0.00 0.00 76 1016.7
20260902011638 29 0 0.0 0.0 0.00 0.00 0.00 75 1016.7
20260902011052 30 0 0.0 0.0 0.00 0.00 0.00 75 1016.7
20260902010552 30 0 0.0 0.0 0.00 0.00 0.00 73 1016.7
20260902010101 30 0 0.0 0.0 0.00 0.00 0.00 71 1016.7
20260902005552 30 0 0.0 0.0 0.00 0.00 0.00 70 1016.6
20260902005051 30 0 0.0 0.0 0.00 0.00 0.00 68 1016.6
20260902004609 31 0 0.0 0.0 0.00 0.00 0.00 66 1016.5
20260902004054 31 0 0.0 0.0 0.00 0.00 0.00 65 1016.5
20260902003553 31 0 0.0 1.6 0.00 0.00 0.00 64 1016.4
20260902003111 32 0 0.0 1.6 0.00 0.00 0.00 62 1016.4
20260902002551 32 0 0.0 1.6 0.00 0.00 0.00 61 1016.4
20260902002051 32 0 0.0 1.6 0.00 0.00 0.00 60 1016.4
20260902001601 33 0 0.0 1.6 0.00 0.00 0.00 60 1016.5
20260902001051 33 0 0.0 4.8 0.00 0.00 0.00 59 1016.5
20260902000551 33 98 0.0 4.8 0.00 0.00 0.00 58 1016.5
20260902000106 33 0 0.0 4.8 0.00 0.00 0.00 57 1016.5
20260901235552 33 293 0.0 4.8 0.00 0.00 0.00 57 1016.5
20260901235051 33 293 1.6 4.8 0.00 0.00 0.00 56 1016.5
20260901234610 34 98 0.0 4.8 0.00 0.00 0.00 56 1016.6
20260901234052 34 96 1.6 4.8 0.00 0.00 0.00 55 1016.7
20260901233552 34 0 0.0 3.2 0.00 0.00 0.00 55 1016.7
20260901233106 35 103 0.0 4.8 0.00 0.00 0.00 54 1016.8
20260901232552 35 83 1.6 4.8 0.00 0.00 0.00 54 1016.8
20260901232053 35 65 1.6 4.8 0.00 0.00 0.00 54 1016.8
20260901231615 35 69 0.0 3.2 0.00 0.00 0.00 54 1016.8
20260901231051 34 57 0.0 3.2 0.00 0.00 0.00 54 1016.8
20260901230554 34 153 0.0 4.8 0.00 0.00 0.00 54 1017.0
20260901230113 35 83 0.0 9.7 0.00 0.00 0.00 53 1016.8
20260901225552 35 181 1.6 9.7 0.00 0.00 0.00 52 1017.0
20260901225052 35 61 3.2 9.7 0.00 0.00 0.00 51 1016.9
20260901224559 36 279 1.6 6.4 0.00 0.00 0.00 50 1016.9
20260901224053 36 71 1.6 6.4 0.00 0.00 0.00 49 1016.8
20260901223554 36 51 1.6 6.4 0.00 0.00 0.00 49 1016.9
20260901223103 36 79 1.6 6.4 0.00 0.00 0.00 49 1016.8
20260901222552 36 44 1.6 6.4 0.00 0.00 0.00 51 1016.8
20260901222051 36 309 1.6 8.0 0.00 0.00 0.00 51 1016.9
20260901221625 36 72 3.2 8.0 0.00 0.00 0.00 51 1016.8
20260901221051 35 91 1.6 6.4 0.00 0.00 0.00 52 1016.8
20260901220553 35 103 0.0 3.2 0.00 0.00 0.00 54 1016.8
20260901220123 35 0 1.6 3.2 0.00 0.00 0.00 54 1016.8
20260901215552 35 0 0.0 4.8 0.00 0.00 0.00 54 1016.8
20260901215052 35 67 0.0 4.8 0.00 0.00 0.00 52 1016.8
20260901214603 35 87 0.0 4.8 0.00 0.00 0.00 52 1016.8
20260901214052 35 131 0.0 6.4 0.00 0.00 0.00 51 1016.8
20260901213552 36 306 1.6 6.4 0.00 0.00 0.00 49 1016.9
20260901213110 36 86 1.6 6.4 0.00 0.00 0.00 48 1016.9
20260901212551 36 53 0.0 4.8 0.00 0.00 0.00 47 1017.0
20260901212052 37 134 1.6 12.9 0.00 0.00 0.00 46 1016.9
20260901211601 37 104 3.2 12.9 0.00 0.00 0.00 47 1016.9
20260901211051 37 82 3.2 8.0 0.00 0.00 0.00 45 1017.0
20260901210551 37 79 1.6 8.0 0.00 0.00 0.00 47 1017.0
20260901210119 37 61 1.6 8.0 0.00 0.00 0.00 46 1017.1
20260901205552 37 145 1.6 8.0 0.00 0.00 0.00 46 1017.1
20260901205051 38 81 1.6 4.8 0.00 0.00 0.00 46 1017.0
20260901204623 38 119 1.6 4.8 0.00 0.00 0.00 46 1017.1
20260901204052 38 202 1.6 9.7 0.00 0.00 0.00 48 1017.1
20260901203556 37 91 3.2 9.7 0.00 0.00 0.00 49 1017.2
20260901203104 38 84 3.2 8.0 0.00 0.00 0.00 48 1017.3
20260901202551 38 127 1.6 8.0 0.00 0.00 0.00 49 1017.2
20260901202055 38 120 3.2 9.7 0.00 0.00 0.00 49 1017.4
20260901201602 38 18 4.8 11.3 0.00 0.00 0.00 48 1017.4
20260901201052 38 23 1.6 11.3 0.00 0.00 0.00 50 1017.4
20260901200553 37 77 1.6 8.0 0.00 0.00 0.00 49 1017.4
20260901200122 37 278 3.2 6.4 0.00 0.00 0.00 50 1017.4
20260901195552 36 96 1.6 4.8 0.00 0.00 0.00 51 1017.5
20260901195052 36 277 0.0 3.2 0.00 0.00 0.00 50 1017.6
20260901194612 36 0 1.6 3.2 0.00 0.00 0.00 51 1017.5
20260901194054 36 134 0.0 4.8 0.00 0.00 0.00 52 1017.6
20260901193552 36 95 1.6 4.8 0.00 0.00 0.00 52 1017.6
20260901193103 37 139 0.0 3.2 0.00 0.00 0.00 49 1017.7
20260901192557 37 103 0.0 3.2 0.00 0.00 0.00 49 1017.8
20260901192052 38 312 1.6 6.4 0.00 0.00 0.00 47 1017.8
20260901191638 38 122 1.6 6.4 0.00 0.00 0.00 49 1017.9
20260901191054 37 93 1.6 6.4 0.00 0.00 0.00 50 1017.9
20260901190552 37 79 1.6 6.4 0.00 0.00 0.00 53 1018.0
20260901190108 37 88 3.2 9.7 0.00 0.00 0.00 48 1018.1
20260901185552 37 90 3.2 9.7 0.00 0.00 0.00 57 1018.2
20260901185051 37 18 1.6 6.4 0.00 0.00 0.00 50 1018.2
20260901184606 37 82 3.2 6.4 0.00 0.00 0.00 53 1018.3
20260901184051 37 138 0.0 8.0 0.00 0.00 0.00 51 1018.3
20260901183555 37 95 1.6 8.0 0.00 0.00 0.00 49 1018.4
20260901183102 37 100 3.2 8.0 0.00 0.00 0.00 48 1018.6
20260901182553 37 80 1.6 6.4 0.00 0.00 0.00 51 1018.6
20260901182052 37 98 1.6 8.0 0.00 0.00 0.00 52 1018.7
20260901181619 37 96 3.2 9.7 0.00 0.00 0.00 50 1018.6
20260901181053 37 106 1.6 9.7 0.00 0.00 0.00 54 1018.6
20260901180552 37 6 1.6 8.0 0.00 0.00 0.00 54 1018.8
20260901180103 37 100 3.2 9.7 0.00 0.00 0.00 54 1018.9
20260901175553 36 79 1.6 9.7 0.00 0.00 0.00 52 1018.9
20260901175051 36 155 3.2 9.7 0.00 0.00 0.00 53 1019.0
20260901174605 37 136 0.0 8.0 0.00 0.00 0.00 54 1019.0
20260901174052 36 44 1.6 8.0 0.00 0.00 0.00 53 1019.2
20260901173552 37 84 1.6 4.8 0.00 0.00 0.00 56 1019.3
20260901173118 36 149 1.6 4.8 0.00 0.00 0.00 53 1019.3
20260901172554 36 0 1.6 3.2 0.00 0.00 0.00 57 1019.4
20260901172052 36 104 1.6 6.4 0.00 0.00 0.00 55 1019.4
20260901171606 36 162 1.6 6.4 0.00 0.00 0.00 53 1019.5
20260901171052 36 127 1.6 6.4 0.00 0.00 0.00 55 1019.6
20260901170553 37 79 1.6 6.4 0.00 0.00 0.00 56 1019.6
20260901170104 36 110 1.6 6.4 0.00 0.00 0.00 57 1019.7
20260901165551 36 83 3.2 6.4 0.00 0.00 0.00 54 1019.8
20260901165052 36 123 1.6 6.4 0.00 0.00 0.00 56 1019.8
20260901164628 36 106 1.6 4.8 0.00 0.00 0.00 59 1019.9
20260901164053 36 65 1.6 9.7 0.00 0.00 0.00 62 1020.0